Yakima, WA

10:48 PM PDT on April 22, 2017 (GMT -0700)
Yakima Air Term-McAllister

Weather History for KYKM - February, 2013

Change the Weather History Date:

Saturday, February 16, 2013

  Actual Average Record
Temperature  
Mean Temperature 43 °F 36 °F  
Max Temperature 59 °F 47 °F 67 °F (1977)
Min Temperature 26 °F 26 °F 3 °F (1956)
Degree Days  
Heating Degree Days 22 29  
Month to date heating degree days 383 481  
Since 1 July heating degree days 3652 4199  
Cooling Degree Days 0 0  
Month to date cooling degree days 0 0  
Year to date cooling degree days 0 0  
Moisture  
Dew Point 27 °F    
Average Humidity 63    
Maximum Humidity 92    
Minimum Humidity 33    
Precipitation  
Precipitation 0.00 in 0.03 in 0.42 in (1959)
Month to date precipitation T 0.46  
Year to date precipitation 0.10 1.60  
Snow  
Snow 0.00 in 0.10 in 3.40 in (1989)
Month to date snowfall 0.0 1.7  
Year to date snowfall 1.1 7.0  
Since 1 July snowfall 15.3 20.0  
Snow Depth 0.00 in    
Sea Level Pressure  
Sea Level Pressure 30.12 in    
Wind  
Wind Speed 6 mph (WNW)    
Max Wind Speed 29 mph    
Max Gust Speed 36 mph    
Visibility 9 miles    
Events      
T = Trace of Precipitation, MM = Missing Value Source: NWS Daily Summary

Daily Weather History Graph

Daily Weather History Graph

Search for Another Location

Airport or City:

Trip Planner

Search our weather history database for the weather conditions in past years. The results will help you decide how hot, cold, wet, or windy it might be!

Date:

Astronomy

Feb. 16, 2013 Rise Set
Actual Time 7:03 AM PST 5:29 PM PST
Civil Twilight 6:32 AM PST 6:00 PM PST
Nautical Twilight 5:57 AM PST 6:35 PM PST
Astronomical Twilight 5:22 AM PST 7:10 PM PST
Moon 9:53 AM PST (2/16) No Moon Set
Length of Visible Light 11h 27m
Length of Day
10h 25m
Waxing Crescent, 40% of the Moon is Illuminated
Feb 16
Waxing Crescent
Feb 17
First Quarter
Feb 25
Full
Mar 4
Last Quarter
Mar 11
New

Hourly Weather History & Observations

Time (PST) Temp. Windchill Dew Point Humidity Pressure Visibility Wind Dir Wind Speed Gust Speed Precip Events Conditions
12:53 AM 30.0 °F 24.1 °F 26.1 °F 85% 30.27 in 7.0 mi WNW 5.8 mph - N/A   Clear
1:53 AM 30.0 °F 25.2 °F 26.1 °F 85% 30.25 in 7.0 mi WNW 4.6 mph - N/A   Clear
2:53 AM 28.9 °F 25.2 °F 26.1 °F 89% 30.23 in 6.0 mi WNW 3.5 mph - N/A   Clear
3:53 AM 27.0 °F 21.6 °F 24.1 °F 89% 30.22 in 6.0 mi West 4.6 mph - N/A   Clear
4:53 AM 27.0 °F 21.6 °F 23.0 °F 85% 30.19 in 6.0 mi WNW 4.6 mph - N/A   Clear
5:53 AM 27.0 °F 21.6 °F 23.0 °F 85% 30.19 in 6.0 mi WNW 4.6 mph - N/A   Clear
6:53 AM 26.1 °F - 21.9 °F 84% 30.18 in 8.0 mi Calm Calm - N/A   Clear
7:53 AM 30.0 °F - 25.0 °F 82% 30.18 in 7.0 mi Calm Calm - N/A   Clear
8:53 AM 34.0 °F - 30.0 °F 85% 30.17 in 7.0 mi Calm Calm - N/A   Mostly Cloudy
9:53 AM 41.0 °F - 33.1 °F 73% 30.14 in 10.0 mi Calm Calm - N/A   Mostly Cloudy
10:53 AM 45.0 °F - 34.0 °F 65% 30.13 in 10.0 mi Calm Calm - N/A   Clear
11:53 AM 46.9 °F - 34.0 °F 61% 30.11 in 10.0 mi Calm Calm - N/A   Clear
12:53 PM 52.0 °F - 36.0 °F 54% 30.07 in 10.0 mi Calm Calm - N/A   Scattered Clouds
1:53 PM 55.9 °F - 37.9 °F 51% 30.04 in 10.0 mi South 3.5 mph - N/A   Scattered Clouds
2:53 PM 57.9 °F - 28.9 °F 33% 30.02 in 10.0 mi WNW 15.0 mph 20.7 mph N/A   Scattered Clouds
3:53 PM 54.0 °F - 28.0 °F 37% 30.04 in 10.0 mi West 25.3 mph 33.4 mph N/A   Scattered Clouds
4:53 PM 51.1 °F - 26.1 °F 38% 30.06 in 10.0 mi West 17.3 mph 25.3 mph N/A   Scattered Clouds
5:53 PM 48.0 °F - 26.1 °F 42% 30.06 in 10.0 mi West 13.8 mph - N/A   Partly Cloudy
6:53 PM 46.9 °F - 25.0 °F 42% 30.06 in 10.0 mi WNW 10.4 mph 20.7 mph N/A   Clear
7:53 PM 45.0 °F 40.1 °F 25.0 °F 46% 30.05 in 10.0 mi WNW 9.2 mph - N/A   Clear
8:53 PM 41.0 °F 37.1 °F 25.0 °F 53% 30.08 in 10.0 mi West 5.8 mph - N/A   Clear
9:53 PM 39.9 °F 35.1 °F 24.1 °F 53% 30.08 in 10.0 mi WNW 6.9 mph - N/A   Clear
10:53 PM 44.1 °F 37.7 °F 25.0 °F 47% 30.06 in 10.0 mi WNW 12.7 mph - N/A   Clear
11:53 PM 42.1 °F 39.2 °F 25.0 °F 51% 30.08 in 10.0 mi ESE 4.6 mph - N/A   Clear